STARLINK-32184

Last updated on Tue Oct 01 2024 00:02:04 GMT+0000 (Coordinated Universal Time)

1 60942U 24155U 24274.58334491 -.00613710 00000+0 -16372-1 0 9993 2 60942 53.1595 51.9524 0001144 75.5738 136.1313 15.40049671 5844
UTC large
Height (km)
Speed (km/s)
/
Latitude / Longitude
Inclination (degrees)
Orbital Period (minutes)
Azimuth
Elevation
Range (km)
Doppler Factor

Next 0 passes for location: London (51.5072 / 0.1276)

Sorry there are no passes over London.